DELTA 1 DEB, 21297

Orbit data source: Space-Track

DELTA 1 DEB, 21297 is space debris in SSO originally from a launch on Thu, 12 Jun 1975 UTC launched from the Air Force Western Test Range (AFWTR). Debris objects in space refer to the collection of defunct objects orbiting the Earth. Examples of debris include non-operational satellites, rocket bodies, and fragments generated from explosions, collisions, or faulty payload assembly.

Loading next visibility...
DELTA 1 DEB details
Identifier
21297, 1975-052AJ
Orbit
SSO
Last TLE update9 hours ago
Origin
Flag of USGSFC (US)
ManufacturerUnknown
MissionSpacecraft
Bus & MotorUnknown
MassUnknown
Launch date (UTC)
1975-06-12 (50 years ago)
Launch vehicleUnknown
Launch site
Air Force Western Test Range (AFWTR)
Object type
Payload
Rocket body
Debris
Shape & HBRUnknown
Radar Cross SectionMedium (>0.1 m² and <1 m²)

Expand to show TLE details & history

TLE from 9 hours ago
0 DELTA 1 DEB
1 21297U 75052AJ  24361.19711062  .00000181  00000-0  44815-3 0  9998
2 21297  99.7088 208.8316 0070082 183.4266 291.5372 13.33126095634509
Epoch: 2024-12-26T04:43Z
Definitive object data (Epoch: 2024-12-26T04:43:50.357Z)
Latitude64.10878°
Longitude-116.77897°
Altitude1,126.942 km
Speed7.304 km/s
True Right ascension03h 17m 26s
True Declination63° 58' 48"
Sunlit
Object was in full shadow at TLE epoch
Visualization TLE readout
Latitude56.37372°
Longitude28.20562°
Altitude1,174.271 km
Speed7.257 km/s
Apparent Right ascension23h 59m 16s
Apparent Declination71° 38' 50"
Sunlit
Object is in daylight
Visualization observer readout
Local Sidereal Time12:48:50
Azimuth4.176° NNE
Elevation21.91°
Doppler factor1
Orbital elements
Apogee altitude1,184.954 km
Perigee altitude1,079.684 km
Semi-major axis7,510.456 km
Eccentricity0.0070082
Inclination99.7088°
RAAN208.8316°
Arg. of periapsis183.4266°
True anomaly290.7878°
Mean anomaly291.5372°
Eccentric anomaly291.16274°
Mean motion3.3346 °/min
BSTAR0.00044815
Orbital period107.96 mins
Loading maneuver chart data...
Loading historical data...
Loading historical data...
Loading historical data...
Loading historical data...
Loading historical data...
Loading historical data...
Loading historical data...

DELTA 1 DEB Visibility forecast

Observer location: undefined°, undefined

Span
Click to sort rows by Start time (UTC) header in descending order
Start Az.
Max El. time (UTC)
Max El. Az.
Max El.
End time (UTC)
End Az.
10 mins2024-12-26 15:05:09.355Z215.691° SW2024-12-26 15:09:09.355Z261.398° W26.984°2024-12-26 15:15:09.355Z323.07° NNW
10 mins2024-12-27 02:24:09.355Z34.144° NE2024-12-27 02:29:09.355Z112.204° ESE35.841°2024-12-27 02:34:09.355Z169.577° S
9 mins2024-12-27 04:11:09.355Z343.179° N2024-12-27 04:15:09.355Z292.192° WNW26.777°2024-12-27 04:20:09.355Z240.422° WSW
10 mins2024-12-27 12:44:09.355Z110.199° ESE2024-12-27 12:48:09.355Z67.642° E25.822°2024-12-27 12:54:09.355Z6.791° NNE
|